Location: Unspecified
(54.1780°N, 0.0000°E)
Time: 11:35:28
(UTC+00:00)

Transit 2A - Pass Details

Date: 19 June 2019
Orbit: 595 x 964 km, 66.7° (Epoch: 21 July)

Event Time Altitude Azimuth Distance (km) Brightness Sun altitude
Rises 09:05:44 0° 318° (NW) 3,538 9.0 45.2°
Reaches altitude 10° 09:08:21 10° 317° (NW) 2,547 8.4 45.5°
Maximum altitude 09:14:15 82° 232° (SW) 832 7.0 46.3°
Drops below altitude 10° 09:19:31 10° 145° (SE) 2,283 9.3 47.0°
Sets 09:21:46 0° 144° (SE) 3,147 9.8 47.3°
